Location: Bad Salzschlirf
(50.3750°N, 9.3000°E)
Time: 17:57:27
(UTC+01:00)

ISS - Pass Details

Date: 24 January 2020
Orbit: 415 x 421 km, 51.6° (Epoch: 18 January)

Event Time Altitude Azimuth Distance (km) Brightness Sun altitude
Rises 19:59:12 0° 259° (W) 2,361 1.2 -28.0°
Reaches altitude 10° 20:01:18 10° 261° (W) 1,497 -0.1 -28.4°
Enters shadow 20:02:20 19° 262° (W) 1,080 -1.0 -28.5°
